Ortonville, MN

5:42 AM CST on February 08, 2016 (GMT -0600)
Ortonville Municipal-Martinson

Weather History for KVVV - November, 2013

Change the Weather History Date:

Friday, November 8, 2013

  Actual Average (KAQP) Record (KAQP)
Temperature  
Mean Temperature 36 °F -  
Max Temperature 48 °F 41 °F 82 °F (1999)
Min Temperature 23 °F 24 °F 1 °F (2003)
Degree Days  
Heating Degree Days 30    
Moisture  
Dew Point 29 °F    
Average Humidity 74    
Maximum Humidity 87    
Minimum Humidity 50    
Precipitation  
Precipitation 0.03 in - - ()
Sea Level Pressure  
Sea Level Pressure 29.77 in    
Wind  
Wind Speed 9 mph (SSE)    
Max Wind Speed 24 mph    
Max Gust Speed 31 mph    
Visibility 10 miles    
Events Rain    
Averages and records for this station are not official NWS values.
T = Trace of Precipitation, MM = Missing Value Source: NWS Daily Summary

Daily Weather History Graph

Daily Weather History Graph

Search for Another Location

Airport or City:

Trip Planner

Search our weather history database for the weather conditions in past years. The results will help you decide how hot, cold, wet, or windy it might be!

Date:

Astronomy

Nov. 08, 2013 Rise Set
Actual Time 7:14 AM CST 5:03 PM CST
Civil Twilight 6:43 AM CST 5:34 PM CST
Nautical Twilight 6:08 AM CST 6:10 PM CST
Astronomical Twilight 5:33 AM CST 6:44 PM CST
Moon 12:11 PM CST 10:26 PM CST
Length of Visible Light 10h 51m
Length of Day
9h 48m
Waxing Crescent, 33% of the Moon is Illuminated
Nov 8
Waxing Crescent
Nov 9
First Quarter
Nov 17
Full
Nov 25
Last Quarter
Dec 2
New

Hourly Weather History & Observations

Time (CST) Temp. Windchill Dew Point Humidity Pressure Visibility Wind Dir Wind Speed Gust Speed Precip Events Conditions
12:13 AM 24.8 °F 20.5 °F 21.2 °F 86% 30.13 in 10.0 mi South 3.5 mph - N/A   Clear
12:34 AM 26.6 °F - 21.2 °F 80% 30.13 in 10.0 mi Calm Calm - N/A   Clear
12:54 AM 24.8 °F 19.1 °F 21.2 °F 86% 30.12 in 10.0 mi South 4.6 mph - N/A   Clear
1:13 AM 24.8 °F 20.5 °F 21.2 °F 86% 30.11 in 10.0 mi SSE 3.5 mph - N/A   Clear
1:34 AM 24.8 °F 17.9 °F 21.2 °F 86% 30.11 in 10.0 mi South 5.8 mph - N/A   Clear
1:54 AM 24.8 °F 19.1 °F 21.2 °F 86% 30.10 in 10.0 mi SSE 4.6 mph - N/A   Clear
2:13 AM 26.6 °F 21.2 °F 21.2 °F 80% 30.10 in 10.0 mi SE 4.6 mph - N/A   Clear
2:34 AM 26.6 °F 18.2 °F 21.2 °F 80% 30.08 in 10.0 mi SE 8.1 mph - N/A   Clear
2:54 AM 24.8 °F 16.9 °F 19.4 °F 80% 30.08 in 10.0 mi SE 6.9 mph - N/A   Clear
3:13 AM 23.0 °F 15.8 °F 19.4 °F 86% 30.08 in 10.0 mi SSE 5.8 mph - N/A   Clear
3:34 AM 24.8 °F 19.1 °F 21.2 °F 86% 30.06 in 10.0 mi ESE 4.6 mph - N/A   Clear
3:54 AM 26.6 °F 19.1 °F 21.2 °F 80% 30.05 in 10.0 mi ESE 6.9 mph - N/A   Clear
4:13 AM 24.8 °F 16.9 °F 21.2 °F 86% 30.04 in 10.0 mi SE 6.9 mph - N/A   Clear
4:34 AM 26.6 °F 17.5 °F 23.0 °F 86% 30.02 in 10.0 mi SE 9.2 mph - N/A   Clear
4:54 AM 26.6 °F 16.8 °F 23.0 °F 86% 30.01 in 10.0 mi ESE 10.4 mph - N/A   Clear
5:13 AM 26.6 °F 16.8 °F 23.0 °F 86% 29.99 in 10.0 mi ESE 10.4 mph - N/A   Clear
5:34 AM 26.6 °F 16.2 °F 23.0 °F 86% 29.98 in 10.0 mi ESE 11.5 mph - N/A   Clear
5:54 AM 26.6 °F 16.2 °F 23.0 °F 86% 29.97 in 10.0 mi ESE 11.5 mph - N/A   Clear
6:13 AM 26.6 °F 16.8 °F 23.0 °F 86% 29.96 in 10.0 mi SE 10.4 mph - N/A   Clear
6:34 AM 28.4 °F 17.5 °F 23.0 °F 80% 29.93 in 10.0 mi SE 13.8 mph - N/A   Scattered Clouds
6:53 AM 28.4 °F 18.5 °F 24.8 °F 86% 29.92 in 10.0 mi SE 11.5 mph - N/A   Mostly Cloudy
7:13 AM 30.2 °F 19.3 °F 24.8 °F 80% 29.91 in 10.0 mi ESE 15.0 mph - N/A   Mostly Cloudy
7:34 AM 30.2 °F 19.8 °F 24.8 °F 80% 29.88 in 10.0 mi SE 13.8 mph 19.6 mph N/A   Scattered Clouds
7:53 AM 32.0 °F 20.8 °F 24.8 °F 75% 29.87 in 10.0 mi SE 17.3 mph 21.9 mph N/A   Scattered Clouds
8:14 AM 32.0 °F 21.2 °F 24.8 °F 75% 29.86 in 10.0 mi SE 16.1 mph - N/A   Clear
8:34 AM 33.8 °F 22.8 °F 24.8 °F 70% 29.84 in 10.0 mi SE 18.4 mph 23.0 mph N/A   Clear
8:53 AM 33.8 °F 23.2 °F 24.8 °F 70% 29.82 in 10.0 mi SE 17.3 mph 23.0 mph N/A   Clear
9:14 AM 35.6 °F 24.5 °F 24.8 °F 65% 29.80 in 10.0 mi SE 20.7 mph 25.3 mph N/A   Clear
9:33 AM 35.6 °F 24.8 °F 26.6 °F 70% 29.79 in 10.0 mi SE 19.6 mph 25.3 mph N/A   Scattered Clouds
9:54 AM 37.4 °F 27.2 °F 26.6 °F 65% 29.77 in 10.0 mi SE 19.6 mph 25.3 mph N/A   Scattered Clouds
10:14 AM 37.4 °F 26.4 °F 24.8 °F 60% 29.74 in 10.0 mi SE 23.0 mph 29.9 mph N/A   Mostly Cloudy
10:33 AM 39.2 °F 29.8 °F 24.8 °F 56% 29.73 in 10.0 mi SE 18.4 mph 28.8 mph N/A   Mostly Cloudy
10:54 AM 39.2 °F 29.0 °F 24.8 °F 56% 29.73 in 10.0 mi SSE 21.9 mph 29.9 mph N/A   Overcast
11:14 AM 39.2 °F 29.0 °F 24.8 °F 56% 29.71 in 10.0 mi SE 21.9 mph 28.8 mph N/A   Scattered Clouds
11:33 AM 39.2 °F 28.5 °F 26.6 °F 61% 29.68 in 10.0 mi SE 24.2 mph 31.1 mph N/A   Clear
11:52 AM 39.2 °F 29.0 °F 26.6 °F 61% 29.65 in 10.0 mi SE 21.9 mph 28.8 mph N/A   Clear
12:14 PM 39.2 °F 29.6 °F 26.6 °F 61% 29.64 in 10.0 mi SE 19.6 mph 26.5 mph N/A   Scattered Clouds
12:33 PM 41.0 °F 32.2 °F 28.4 °F 61% 29.65 in 10.0 mi SSE 18.4 mph 23.0 mph N/A   Scattered Clouds
12:54 PM 42.8 °F 35.4 °F 28.4 °F 57% 29.64 in 10.0 mi SSE 15.0 mph 23.0 mph N/A   Clear
1:14 PM 42.8 °F 35.8 °F 28.4 °F 57% 29.62 in 10.0 mi SSE 13.8 mph 19.6 mph N/A   Scattered Clouds
1:34 PM 44.6 °F 37.8 °F 30.2 °F 57% 29.59 in 10.0 mi SSE 15.0 mph 21.9 mph N/A   Scattered Clouds
1:53 PM 46.4 °F 39.2 °F 30.2 °F 53% 29.59 in 10.0 mi South 18.4 mph 27.6 mph N/A   Clear
2:14 PM 46.4 °F 39.8 °F 30.2 °F 53% 29.59 in 10.0 mi South 16.1 mph 20.7 mph N/A   Clear
2:34 PM 48.2 °F - 30.2 °F 50% 29.59 in 10.0 mi South 13.8 mph 19.6 mph N/A   Clear
2:54 PM 48.2 °F - 30.2 °F 50% 29.58 in 10.0 mi South 12.7 mph 21.9 mph N/A   Clear
3:14 PM 48.2 °F - 32.0 °F 54% 29.58 in 10.0 mi South 13.8 mph 19.6 mph N/A   Clear
3:34 PM 48.2 °F - 32.0 °F 54% 29.57 in 10.0 mi South 9.2 mph - N/A   Clear
3:53 PM 48.2 °F - 33.8 °F 58% 29.57 in 10.0 mi South 8.1 mph - N/A   Clear
4:13 PM 48.2 °F - 33.8 °F 58% 29.56 in 10.0 mi South 5.8 mph - N/A   Clear
4:33 PM 44.6 °F 43.1 °F 33.8 °F 66% 29.56 in 10.0 mi South 3.5 mph - N/A   Clear
4:54 PM 44.6 °F 42.2 °F 32.0 °F 61% 29.55 in 10.0 mi SE 4.6 mph - N/A   Scattered Clouds
5:13 PM 42.8 °F 40.1 °F 33.8 °F 70% 29.56 in 10.0 mi SSE 4.6 mph - N/A Rain Light Rain
5:34 PM 41.0 °F 37.1 °F 33.8 °F 76% 29.56 in 10.0 mi SE 5.8 mph - N/A Rain Light Rain
5:53 PM 41.0 °F - 35.6 °F 81% 29.57 in 10.0 mi Calm Calm - N/A Rain Rain
6:14 PM 41.0 °F 38.0 °F 35.6 °F 81% 29.58 in 7.0 mi West 4.6 mph - 0.01 in Rain Light Rain
6:34 PM 42.8 °F 39.3 °F 39.2 °F 87% 29.58 in 10.0 mi West 5.8 mph - 0.03 in Rain Light Rain
6:53 PM 44.6 °F 40.2 °F 39.2 °F 81% 29.58 in 10.0 mi West 8.1 mph - 0.03 in   Overcast
7:14 PM 44.6 °F 38.8 °F 37.4 °F 76% 29.59 in 10.0 mi West 11.5 mph 18.4 mph N/A   Overcast
7:33 PM 44.6 °F 38.1 °F 37.4 °F 76% 29.59 in 10.0 mi WNW 13.8 mph 19.6 mph N/A   Overcast
7:54 PM 42.8 °F 37.0 °F 37.4 °F 81% 29.60 in 10.0 mi WNW 10.4 mph - N/A Rain Rain
8:13 PM 42.8 °F 36.2 °F 37.4 °F 81% 29.61 in 10.0 mi West 12.7 mph - N/A Rain Rain
8:34 PM 42.8 °F 37.5 °F 37.4 °F 81% 29.61 in 10.0 mi WNW 9.2 mph 18.4 mph N/A   Overcast
8:53 PM 41.0 °F 35.2 °F 37.4 °F 87% 29.61 in 10.0 mi WNW 9.2 mph - N/A   Overcast
9:13 PM 41.0 °F 35.8 °F 37.4 °F 87% 29.62 in 10.0 mi WNW 8.1 mph - N/A   Overcast
9:34 PM 41.0 °F 35.8 °F 35.6 °F 81% 29.62 in 10.0 mi WNW 8.1 mph - N/A   Mostly Cloudy
9:53 PM 39.2 °F 32.5 °F 35.6 °F 87% 29.63 in 10.0 mi WNW 10.4 mph - N/A   Mostly Cloudy
10:14 PM 39.2 °F 33.0 °F 35.6 °F 87% 29.64 in 10.0 mi West 9.2 mph - N/A   Scattered Clouds
10:33 PM 39.2 °F 32.5 °F 35.6 °F 87% 29.64 in 10.0 mi West 10.4 mph - N/A   Clear
10:54 PM 39.2 °F 32.5 °F 35.6 °F 87% 29.65 in 10.0 mi West 10.4 mph 16.1 mph N/A   Scattered Clouds
11:14 PM 39.2 °F 32.5 °F 33.8 °F 81% 29.66 in 10.0 mi West 10.4 mph - N/A   Scattered Clouds
11:33 PM 39.2 °F 33.0 °F 35.6 °F 87% 29.67 in 10.0 mi West 9.2 mph - N/A   Mostly Cloudy
11:54 PM 41.0 °F 33.9 °F 35.6 °F 81% 29.67 in 10.0 mi WNW 12.7 mph 17.3 mph N/A   Mostly Cloudy